Location: Buch
(49.7331°N, 12.1098°E)
Time: 14:37:44
(UTC+00:00)

RESURS DK-1 - Pass Details

Date: 12 May 2021
Orbit: 553 x 564 km, 69.9° (Epoch: 17 June)

Event Time Altitude Azimuth Distance (km) Brightness Sun altitude
Rises 22:55:05 0° 326° (NNW) 2,767 6.9 -21.8°
Reaches altitude 10° 22:57:19 10° 323° (NW) 1,867 5.8 -21.8°
Maximum altitude 23:01:26 60° 244° (WSW) 649 2.4 -21.9°
Enters shadow 23:01:27 60° 243° (WSW) 649 2.4 -21.9°
